1516240800.87,43654,8.56,71504.3,-16.35,-16.97,-16.93,0,*65
1516240802.11,43655,8.56,71496.8,-16.33,-17.03,-16.89,0,*65
1516240803.35,43656,8.56,71494.5,-16.33,-16.93,-17.03,0,*6D
1516240804.62,43657,8.56,71502.0,-16.33,-17.11,-17.11,0,*64
1516240805.89,43658,8.56,71502.3,-16.33,-17.03,-17.03,0,*6B
1516240807.16,43659,8.56,71500.3,-16.33,-17.03,-17.03,0,*6A
1516240808.43,43660,8.56,71500.8,-16.33,-17.07,-17.07,0,*60
1516240809.7,43661,8.56,71502.0,-16.33,-17.21,-17.21,0,*61
1516240811.0,43662,8.56,71504.3,-16.35,-17.21,-17.21,0,*64
1516240812.27,43663,8.56,71504.3,-16.33,-17.17,-17.03,0,*66
1516240813.54,43664,8.56,71508.0,-16.33,-17.03,-17.03,0,*64
1516240814.81,43665,8.56,71498.3,-16.33,-17.07,-17.03,0,*61
1516240816.11,43666,8.56,71500.5,-16.35,-17.07,-17.11,0,*67
1516240817.4,43667,8.56,71500.3,-16.35,-17.21,-17.21,0,*61
1516240818.7,43668,8.56,71504.3,-16.35,-17.21,-17.11,0,*6D
1516240820.0,43669,8.56,71502.3,-16.35,-17.11,-17.07,0,*68
1516240821.3,43670,8.56,71500.8,-16.35,-17.11,-17.07,0,*60
1516240822.56,43671,8.56,71502.3,-16.33,-17.17,-17.17,0,*60
1516240823.86,43672,8.56,71500.5,-16.35,-17.21,-17.25,0,*61
1516240825.13,43673,8.56,71496.5,-16.33,-17.17,-17.21,0,*67
1516240826.41,43674,8.56,71498.8,-16.33,-17.17,-17.07,0,*64
1516240827.71,43675,8.56,71504.8,-16.35,-17.07,-17.07,0,*62
1516240828.98,43676,8.56,71506.0,-16.33,-17.03,-17.03,0,*67
1516240830.25,43677,8.56,71500.3,-16.33,-17.07,-17.03,0,*62
1516240831.49,43678,8.56,71506.5,-16.33,-17.03,-16.89,0,*6A
1516240832.73,43679,8.56,71492.0,-16.33,-17.03,-16.93,0,*60
1516240834.03,43680,8.56,71488.8,-16.35,-17.11,-17.07,0,*6F
1516240835.3,43681,8.56,71490.0,-16.33,-17.17,-17.03,0,*6A
1516240836.59,43682,8.56,71494.8,-16.35,-17.11,-17.11,0,*6A
1516240837.86,43683,8.56,71496.0,-16.33,-17.03,-17.03,0,*6D
1516240839.13,43684,8.56,71506.5,-16.33,-17.07,-17.03,0,*6E
1516240840.41,43685,8.56,71512.8,-16.33,-17.07,-17.07,0,*6B
1516240841.69,43686,8.56,71498.5,-16.33,-17.07,-17.07,0,*68
1516240842.95,43687,8.56,71490.3,-16.33,-17.11,-17.03,0,*6A
1516240844.23,43688,8.56,71492.8,-16.33,-17.07,-17.07,0,*66
1516240845.44,43689,8.56,71494.8,-16.33,-16.93,-16.93,0,*67
1516240846.68,43690,8.56,71498.8,-16.33,-17.03,-16.93,0,*67
1516240847.91,43691,8.56,71500.3,-16.33,-17.03,-16.93,0,*66
1516240849.16,43692,8.56,71502.3,-16.35,-16.97,-16.97,0,*6B
1516240850.37,43693,8.56,71502.0,-16.33,-16.89,-16.89,0,*6C
1516240851.58,43694,8.56,71504.3,-16.33,-16.93,-16.89,0,*60
1516240852.81,43695,8.56,71512.3,-16.35,-16.93,-16.93,0,*6C
1516240854.02,43696,8.56,71512.5,-16.33,-16.93,-16.93,0,*69
1516240855.24,43697,8.56,71516.5,-16.33,-16.89,-16.93,0,*63
1516240856.44,43698,8.56,71520.5,-16.33,-16.93,-16.89,0,*6C
1516240857.66,43699,8.56,71518.3,-16.33,-16.89,-16.89,0,*66
1516240858.87,43700,8.56,71532.3,-16.33,-16.89,-16.89,0,*67
1516240860.15,43701,8.56,71510.3,-16.33,-17.03,-17.07,0,*62
1516240861.44,43702,8.56,71512.3,-16.35,-17.11,-17.11,0,*63
1516240862.72,43703,8.56,71506.3,-16.33,-17.17,-17.07,0,*65
1516240864.02,43704,8.56,71506.5,-16.35,-17.07,-17.07,0,*65
1516240865.3,43705,8.56,71508.5,-16.33,-17.07,-17.07,0,*62
1516240866.6,43706,8.56,71510.0,-16.35,-17.07,-17.07,0,*67
1516240867.88,43707,8.56,71508.0,-16.33,-17.03,-17.07,0,*64
1516240869.15,43708,8.56,71508.8,-16.33,-17.03,-17.03,0,*6F
1516240870.42,43709,8.56,71514.8,-16.35,-16.97,-17.07,0,*60
1516240871.66,43710,8.56,71514.0,-16.33,-17.03,-16.93,0,*6E
1516240872.9,43711,8.56,71514.0,-16.35,-16.97,-16.97,0,*61
1516240874.14,43712,8.56,71512.0,-16.35,-16.97,-16.97,0,*62
1516240875.35,43713,8.56,71512.8,-16.33,-16.93,-16.93,0,*65
1516240876.56,43714,8.56,71518.8,-16.33,-16.89,-16.89,0,*62
1516240877.77,43715,8.56,71516.3,-16.33,-16.93,-16.93,0,*63
1516240878.98,43716,8.56,71518.5,-16.33,-16.93,-16.89,0,*6B
1516240880.19,43717,8.56,71512.0,-16.33,-16.89,-16.93,0,*6A
1516240881.43,43718,8.56,71510.5,-16.33,-17.03,-16.89,0,*6D
1516240882.64,43719,8.56,71512.0,-16.33,-16.93,-16.93,0,*6F
1516240883.85,43720,8.56,71510.8,-16.33,-16.93,-16.89,0,*6E
1516240885.06,43721,8.56,71512.0,-16.33,-16.89,-16.89,0,*64
1516240886.28,43722,8.56,71516.0,-16.33,-16.97,-16.93,0,*63
1516240887.52,43723,8.56,71516.3,-16.33,-17.03,-16.93,0,*6E
1516240888.73,43724,8.56,71522.5,-16.33,-16.89,-16.93,0,*6A
1516240889.94,43725,8.56,71516.5,-16.33,-16.89,-16.93,0,*6B
1516240891.16,43726,8.56,71518.0,-16.33,-16.89,-16.79,0,*6C
1516240892.37,43727,8.56,71516.3,-16.33,-16.89,-16.89,0,*62
1516240893.61,43728,8.56,71522.8,-16.31,-16.89,-16.79,0,*60
1516240894.85,43729,8.56,71510.5,-16.31,-16.89,-16.89,0,*6E
1516240896.09,43730,8.56,71518.3,-16.31,-16.93,-16.93,0,*66
1516240897.35,43731,8.56,71512.3,-16.31,-17.03,-16.89,0,*64
1516240898.59,43732,8.56,71510.0,-16.33,-16.93,-17.03,0,*6E
1516240899.89,43733,8.56,71508.8,-16.31,-17.07,-17.03,0,*61
1516240901.19,43734,8.56,71508.0,-16.31,-17.07,-17.03,0,*66
1516240902.46,43735,8.56,71508.0,-16.33,-17.03,-17.03,0,*61
1516240903.73,43736,8.56,71510.3,-16.33,-17.03,-17.03,0,*62
1516240905.0,43737,8.56,71514.0,-16.33,-17.03,-17.07,0,*67
1516240906.27,43738,8.56,71504.8,-16.33,-17.07,-17.03,0,*68
1516240907.54,43739,8.56,71504.0,-16.33,-17.07,-17.03,0,*69
1516240908.81,43740,8.56,71500.8,-16.33,-17.03,-17.03,0,*63
1516240910.08,43741,8.56,71502.0,-16.33,-17.07,-17.03,0,*66
1516240911.35,43742,8.56,71496.5,-16.33,-17.03,-17.03,0,*61
1516240912.59,43743,8.56,71500.0,-16.33,-17.03,-16.93,0,*68
1516240913.89,43744,8.56,71498.8,-16.35,-17.07,-17.07,0,*61
1516240915.16,43745,8.56,71498.8,-16.33,-17.03,-17.03,0,*66
1516240916.43,43746,8.56,71494.3,-16.31,-17.07,-16.93,0,*6B
1516240917.69,43747,8.56,71494.3,-16.31,-17.03,-16.93,0,*6E
1516240918.93,43748,8.56,71488.5,-16.31,-16.93,-16.93,0,*69
1516240920.22,43749,8.56,71492.0,-16.31,-17.03,-17.03,0,*68
1516240921.52,43750,8.56,71488.0,-16.31,-17.03,-17.03,0,*60
1516240922.82,43751,8.56,71496.8,-16.31,-17.03,-17.03,0,*61
1516240924.05,43752,8.56,71486.3,-16.31,-16.93,-16.93,0,*62
1516240925.29,43753,8.56,71494.0,-16.31,-16.89,-16.89,0,*63
1516240926.56,43754,8.56,71490.3,-16.31,-17.03,-16.93,0,*6C
1516240927.79,43755,8.56,71492.0,-16.31,-16.93,-16.93,0,*65
1516240929.06,43756,8.56,71486.8,-16.31,-16.93,-17.03,0,*6E
1516240930.35,43757,8.56,71486.5,-16.31,-17.03,-17.03,0,*67
1516240931.65,43758,8.56,71490.3,-16.31,-17.03,-17.03,0,*68
1516240932.91,43759,8.56,71490.0,-16.31,-16.93,-17.03,0,*61
1516240934.15,43760,8.56,71492.5,-16.31,-16.93,-16.89,0,*68
1516240935.36,43761,8.56,71500.5,-16.33,-16.93,-16.89,0,*6B
1516240936.57,43762,8.56,71502.3,-16.33,-16.93,-16.93,0,*63
1516240937.78,43763,8.56,71500.8,-16.33,-16.89,-16.89,0,*62
1516240939.02,43764,8.56,71498.5,-16.31,-16.93,-16.75,0,*6F
1516240940.24,43765,8.56,71500.3,-16.29,-16.89,-16.89,0,*6F
1516240941.45,43766,8.56,71498.3,-16.29,-16.89,-16.89,0,*6C
1516240942.69,43767,8.63,71508.0,-16.31,-16.93,-16.89,0,*6F
1516240943.93,43768,8.56,71504.3,-16.29,-17.07,-16.83,0,*6F
1516240945.16,43769,8.56,71502.5,-16.31,-16.93,-16.93,0,*6A
1516240946.43,43770,8.56,71504.8,-16.31,-17.07,-16.89,0,*65
1516240947.64,43771,8.56,71504.3,-16.29,-16.97,-16.89,0,*65
1516240948.91,43772,8.56,71500.3,-16.31,-17.03,-16.93,0,*68
1516240950.17,43773,8.56,71500.5,-16.31,-17.03,-16.89,0,*62
1516240951.41,43774,8.56,71514.3,-16.31,-16.89,-16.89,0,*66
1516240952.66,43775,8.56,71514.5,-16.31,-16.89,-16.83,0,*6D
1516240953.9,43776,8.56,71512.5,-16.31,-16.89,-16.89,0,*64
1516240955.14,43777,8.56,71516.0,-16.31,-16.89,-16.93,0,*6E
1516240956.35,43778,8.56,71504.0,-16.29,-16.89,-16.89,0,*63
1516240957.56,43779,8.56,71506.8,-16.29,-16.89,-16.89,0,*62
1516240958.77,43780,8.56,71514.8,-16.29,-16.89,-16.93,0,*6F
1516240960.01,43781,8.56,71514.0,-16.31,-16.89,-16.93,0,*67
1516240961.25,43782,8.56,71506.3,-16.31,-16.93,-16.79,0,*6B
1516240962.47,43783,8.56,71510.8,-16.29,-16.83,-16.89,0,*6D
1516240963.68,43784,8.56,71512.5,-16.29,-16.89,-16.97,0,*6F
1516240964.98,43785,8.56,71516.5,-16.31,-17.07,-17.07,0,*68
1516240966.25,43786,8.56,71510.8,-16.29,-17.03,-17.03,0,*62
1516240967.49,43787,8.56,71502.0,-16.29,-17.03,-16.97,0,*6F
1516240968.79,43788,8.56,71502.0,-16.31,-17.07,-17.03,0,*61
1516240970.09,43789,8.56,71504.5,-16.31,-17.03,-17.03,0,*64
1516240971.39,43790,8.56,71506.3,-16.31,-17.03,-17.07,0,*68
1516240972.63,43791,8.56,71512.5,-16.31,-16.89,-16.93,0,*66
1516240973.93,43792,8.56,71520.0,-16.31,-17.03,-17.07,0,*6A
1516240975.23,43793,8.56,71506.3,-16.31,-17.03,-17.07,0,*6B
1516240976.53,43794,8.56,71508.0,-16.31,-17.03,-17.03,0,*68
1516240977.75,43795,8.56,71522.3,-16.29,-16.97,-16.83,0,*65
1516240979.05,43796,8.56,71514.0,-16.31,-17.07,-17.07,0,*6A
1516240980.31,43797,8.56,71514.8,-16.29,-17.11,-17.03,0,*61
1516240981.53,43798,8.56,71510.3,-16.29,-16.97,-16.97,0,*6D
1516240982.74,43799,8.56,71512.3,-16.29,-16.97,-16.97,0,*6C
1516240984.04,43800,8.56,71516.0,-16.31,-17.07,-17.03,0,*6E
1516240985.34,43801,8.56,71522.8,-16.31,-17.03,-17.03,0,*6B
1516240986.55,43802,8.56,71516.3,-16.29,-16.97,-16.97,0,*61
1516240987.76,43803,8.56,71516.0,-16.29,-16.97,-16.97,0,*60
1516240988.98,43804,8.56,71524.3,-16.29,-16.97,-16.97,0,*67
1516240990.28,43805,8.56,71524.8,-16.31,-17.03,-17.07,0,*6B
1516240991.58,43806,8.56,71520.0,-16.31,-17.07,-17.07,0,*6C
1516240992.83,43807,8.56,71524.5,-16.29,-17.07,-16.97,0,*6C
1516240994.13,43808,8.56,71534.3,-16.31,-17.07,-17.07,0,*62
1516240995.4,43809,8.56,71526.3,-16.29,-17.03,-17.03,0,*6A
1516240996.67,43810,8.56,71518.0,-16.29,-17.03,-17.03,0,*62
1516240997.96,43811,8.56,71516.5,-16.31,-17.17,-17.17,0,*6A
1516240999.2,43812,8.56,71522.5,-16.29,-17.03,-16.97,0,*6C
1516241000.48,43813,8.56,71514.0,-16.31,-17.17,-16.97,0,*61
1516241001.75,43814,8.56,71506.0,-16.29,-17.03,-17.03,0,*66
1516241003.05,43815,8.56,71512.8,-16.31,-17.07,-17.07,0,*6E
1516241004.34,43816,8.56,71512.0,-16.31,-17.21,-17.03,0,*6D
1516241005.65,43817,8.56,71510.3,-16.31,-17.07,-17.07,0,*6C
1516241006.92,43818,8.56,71508.8,-16.29,-17.03,-17.03,0,*6A
1516241008.22,43819,8.56,71516.5,-16.31,-17.07,-17.07,0,*62
1516241009.46,43820,8.56,71516.5,-16.29,-17.03,-16.97,0,*6D
1516241010.76,43821,8.56,71514.5,-16.31,-17.07,-17.03,0,*6D
1516241012.05,43822,8.56,71504.8,-16.31,-17.07,-17.03,0,*6E
1516241013.32,43823,8.56,71514.0,-16.29,-17.11,-17.11,0,*62
1516241014.61,43824,8.56,71512.3,-16.31,-17.17,-17.17,0,*6C
1516241015.91,43825,8.56,71518.5,-16.31,-17.07,-17.03,0,*69
1516241017.21,43826,8.56,71516.0,-16.31,-17.03,-17.03,0,*6E
1516241018.51,43827,8.56,71512.3,-16.31,-17.07,-17.07,0,*6F
1516241019.81,43828,8.56,71514.3,-16.31,-17.07,-17.07,0,*60
1516241021.08,43829,8.56,71502.0,-16.29,-17.03,-17.03,0,*68
1516241022.38,43830,8.56,71506.0,-16.31,-17.17,-17.17,0,*69
1516241023.67,43831,8.56,71508.5,-16.31,-17.07,-17.17,0,*69
1516241024.96,43832,8.56,71508.8,-16.31,-17.07,-17.17,0,*6A
1516241026.26,43833,8.56,71480.3,-16.31,-17.07,-17.17,0,*6B
1516241027.55,43834,8.56,71482.8,-16.31,-17.17,-17.17,0,*6D
1516241028.86,43835,8.56,71480.3,-16.31,-17.17,-17.07,0,*6D
1516241030.15,43836,8.56,71480.5,-16.31,-17.17,-17.17,0,*6F
1516241031.45,43837,8.56,71494.5,-16.31,-17.21,-17.17,0,*6B
1516241032.72,43838,8.56,71496.5,-16.29,-17.17,-17.11,0,*6E
1516241034.02,43839,8.56,71494.5,-16.31,-17.07,-17.03,0,*64
1516241035.31,43840,8.56,71500.3,-16.31,-17.03,-17.03,0,*6E
1516241036.58,43841,8.56,71506.3,-16.31,-17.03,-16.93,0,*67
1516241037.82,43842,8.56,71506.3,-16.31,-16.89,-16.89,0,*6C
1516241039.05,43843,8.56,71508.8,-16.31,-16.89,-16.89,0,*6D
1516241040.29,43844,8.56,71514.8,-16.31,-16.89,-16.89,0,*6A
1516241041.51,43845,8.56,71512.8,-16.29,-16.97,-16.89,0,*6D
1516241042.73,43846,8.56,71526.5,-16.29,-16.83,-16.83,0,*61
1516241043.96,43847,8.56,71524.8,-16.31,-16.93,-16.93,0,*69
1516241045.19,43848,8.56,71538.0,-16.31,-16.93,-16.93,0,*66
1516241046.41,43849,8.56,71532.5,-16.29,-16.89,-16.93,0,*65
1516241047.63,43850,8.56,71526.8,-16.29,-16.83,-16.83,0,*66
1516241048.85,43851,8.56,71522.3,-16.29,-16.83,-16.83,0,*67
1516241050.06,43852,8.56,71524.3,-16.29,-16.89,-16.83,0,*6E
1516241051.29,43853,8.56,71524.5,-16.29,-16.89,-16.75,0,*66
1516241052.5,43854,8.56,71526.5,-16.29,-16.83,-16.83,0,*62
1516241053.72,43855,8.56,71526.8,-16.29,-16.89,-16.83,0,*69
1516241054.96,43856,8.56,71522.8,-16.31,-16.93,-16.89,0,*62
1516241056.18,43857,8.56,71536.3,-16.29,-16.89,-16.75,0,*62
1516241057.4,43858,8.56,71528.8,-16.29,-16.83,-16.83,0,*6E
1516241058.61,43859,8.56,71524.8,-16.29,-16.89,-16.89,0,*6F
1516241059.85,43860,8.56,71526.0,-16.31,-16.93,-16.89,0,*67
1516241061.09,43861,8.56,71536.8,-16.29,-17.03,-16.97,0,*68
1516241062.3,43862,8.56,71528.5,-16.29,-16.83,-16.97,0,*62
1516241063.52,43863,8.56,71524.8,-16.29,-16.97,-16.89,0,*69
1516241064.74,43864,8.56,71538.0,-16.29,-16.89,-16.83,0,*6B
1516241065.95,43865,8.56,71546.0,-16.29,-16.89,-16.89,0,*60
1516241067.16,43866,8.56,71524.0,-16.29,-16.97,-16.97,0,*63
1516241068.37,43867,8.56,71522.3,-16.29,-16.97,-16.89,0,*6D
1516241069.61,43868,8.56,71522.3,-16.31,-16.93,-16.89,0,*6F
1516241070.83,43869,8.56,71522.5,-16.29,-16.97,-16.83,0,*69
1516241072.09,43870,8.56,71524.5,-16.31,-17.03,-16.93,0,*65
1516241073.31,43871,8.56,71530.0,-16.29,-16.97,-16.97,0,*65
1516241074.52,43872,8.56,71518.3,-16.29,-16.89,-16.89,0,*66
1516241075.82,43873,8.56,71516.0,-16.31,-17.07,-17.03,0,*6A
1516241077.03,43874,8.56,71524.8,-16.29,-16.97,-16.97,0,*60
1516241078.24,43875,8.56,71526.3,-16.29,-16.97,-16.89,0,*6E
1516241079.45,43876,8.56,71524.8,-16.29,-16.89,-16.89,0,*62
1516241080.67,43877,8.56,71530.3,-16.29,-16.83,-16.83,0,*63
1516241081.91,43878,8.56,71522.0,-16.31,-16.93,-16.93,0,*65
1516241083.12,43879,8.56,71504.3,-16.29,-16.97,-16.97,0,*6D
1516241084.34,43880,8.56,71510.0,-16.29,-16.97,-16.97,0,*6B
1516241085.55,43881,8.56,71512.8,-16.29,-16.97,-16.97,0,*6A
1516241086.77,43882,8.56,71514.5,-16.29,-16.97,-16.97,0,*69
1516241088.04,43883,8.56,71506.3,-16.29,-17.03,-17.03,0,*68
1516241089.27,43884,8.56,71496.8,-16.29,-17.11,-16.97,0,*60
1516241090.54,43885,8.56,71500.0,-16.31,-17.03,-16.93,0,*6F
1516241091.76,43886,8.56,71524.5,-16.29,-16.97,-16.83,0,*68
1516241092.97,43887,8.56,71524.5,-16.29,-16.89,-16.89,0,*6C
1516241094.19,43888,8.56,71518.8,-16.29,-16.97,-16.83,0,*66
1516241095.4,43889,8.56,71518.0,-16.29,-16.97,-16.83,0,*67
1516241096.62,43890,8.56,71528.3,-16.29,-16.83,-16.83,0,*6A
1516241097.84,43891,8.56,71530.5,-16.29,-16.89,-16.83,0,*61
1516241099.05,43892,8.56,71526.5,-16.29,-16.97,-16.89,0,*67
1516241100.27,43893,8.56,71528.3,-16.29,-16.89,-16.89,0,*69
1516241101.5,43894,8.56,71532.0,-16.31,-16.93,-16.93,0,*67
1516241102.74,43895,8.56,71532.0,-16.31,-16.89,-16.93,0,*6D
1516241103.95,43896,8.56,71526.0,-16.29,-16.89,-16.89,0,*6C
1516241105.17,43897,8.56,71524.3,-16.29,-16.89,-16.83,0,*67
1516241106.38,43898,8.56,71530.3,-16.29,-16.83,-16.89,0,*68
1516241107.6,43899,8.56,71526.8,-16.29,-16.89,-16.89,0,*63
1516241108.81,43900,8.56,71526.5,-16.29,-16.89,-16.89,0,*62
1516241110.03,43901,8.56,71518.0,-16.29,-16.89,-16.83,0,*69
1516241111.25,43902,8.56,71512.3,-16.29,-16.83,-16.83,0,*60
1516241112.47,43903,8.56,71536.0,-16.29,-16.83,-16.83,0,*61
1516241113.69,43904,8.56,71522.8,-16.29,-16.75,-16.83,0,*6F
1516241114.9,43905,8.56,71530.8,-16.29,-16.89,-16.83,0,*6D
1516241116.14,43906,8.56,71528.0,-16.31,-16.89,-16.89,0,*6D
1516241117.36,43907,8.56,71544.5,-16.29,-16.97,-16.89,0,*6A
1516241118.6,43908,8.56,71544.3,-16.29,-17.03,-16.97,0,*66
1516241119.87,43909,8.56,71542.0,-16.29,-17.03,-17.03,0,*6B
1516241121.14,43910,8.56,71526.5,-16.29,-17.03,-17.03,0,*63
1516241122.38,43911,8.56,71528.5,-16.29,-16.97,-17.03,0,*6E
1516241123.62,43912,8.56,71530.3,-16.29,-17.03,-16.97,0,*6D
1516241124.86,43913,8.56,71528.0,-16.29,-17.03,-16.97,0,*6C
1516241126.1,43914,8.56,71524.8,-16.29,-17.03,-16.97,0,*6B
1516241127.34,43915,8.56,71524.0,-16.29,-16.97,-17.03,0,*6A
1516241128.61,43916,8.56,71530.8,-16.29,-17.03,-17.11,0,*66
1516241129.91,43917,8.56,71522.0,-16.31,-17.21,-17.17,0,*68
1516241131.17,43918,8.56,71526.5,-16.29,-17.11,-17.11,0,*6B
1516241132.44,43919,8.56,71522.8,-16.29,-17.11,-17.03,0,*69
1516241133.67,43920,8.56,71520.0,-16.29,-17.11,-16.97,0,*6F
1516241134.98,43921,8.56,71522.3,-16.31,-17.07,-17.07,0,*68
1516241136.25,43922,8.56,71516.8,-16.29,-17.17,-17.03,0,*67
1516241137.52,43923,8.56,71522.3,-16.29,-17.11,-17.11,0,*63
1516241138.73,43924,8.56,71516.5,-16.29,-16.97,-16.97,0,*64
1516241139.97,43925,8.56,71522.3,-16.29,-17.03,-16.97,0,*69
1516241141.27,43926,8.56,71520.5,-16.31,-17.03,-17.03,0,*6F
1516241142.48,43927,8.56,71512.8,-16.29,-16.89,-16.83,0,*6D
1516241143.7,43928,8.56,71518.3,-16.29,-16.89,-16.89,0,*68
1516241144.91,43929,8.56,71508.3,-16.29,-16.89,-16.97,0,*66
1516241146.12,43930,8.56,71510.8,-16.29,-16.89,-16.89,0,*61
1516241147.34,43931,8.56,71500.3,-16.29,-16.89,-16.89,0,*60
1516241148.55,43932,8.56,71496.5,-16.29,-16.89,-16.83,0,*69
1516241149.8,43933,8.56,71498.3,-16.31,-16.79,-16.89,0,*64
1516241151.01,43934,8.56,71506.0,-16.29,-16.89,-16.83,0,*6F
1516241152.23,43935,8.56,71490.5,-16.29,-16.89,-16.89,0,*64
1516241153.44,43936,8.56,71494.5,-16.29,-16.89,-16.83,0,*6D
1516241154.65,43937,8.56,71498.0,-16.29,-16.97,-16.89,0,*69
1516241155.87,43938,8.56,71496.3,-16.29,-16.89,-16.89,0,*69
1516241157.13,43939,8.56,71492.3,-16.31,-17.07,-16.93,0,*6D
1516241158.35,43940,8.56,71514.8,-16.29,-16.83,-16.89,0,*6C
1516241159.56,43941,8.56,71494.8,-16.29,-16.89,-16.89,0,*67
1516241160.78,43942,8.56,71492.5,-16.29,-16.97,-16.97,0,*64
1516241161.99,43943,8.56,71500.3,-16.29,-16.89,-16.89,0,*65
1516241163.2,43944,8.56,71518.0,-16.29,-16.89,-16.83,0,*68
1516241164.42,43945,8.56,71504.3,-16.29,-16.83,-16.89,0,*69
1516241165.63,43946,8.56,71502.8,-16.29,-16.89,-16.89,0,*60
1516241166.85,43947,8.56,71520.5,-16.29,-16.89,-16.83,0,*6B
1516241168.07,43948,8.56,71522.5,-16.29,-16.97,-16.83,0,*6B
1516241169.31,43949,8.56,71530.3,-16.29,-17.03,-16.89,0,*6C
1516241170.57,43950,8.56,71530.5,-16.27,-17.03,-16.97,0,*65
1516241171.86,43951,8.56,71538.8,-16.27,-17.11,-17.03,0,*6B
1516241173.13,43952,8.56,71522.5,-16.29,-17.17,-17.11,0,*63
1516241174.4,43953,8.56,71510.8,-16.29,-17.11,-17.11,0,*64
1516241175.7,43954,8.56,71492.5,-16.31,-17.17,-17.21,0,*6F
1516241176.96,43955,8.56,71506.5,-16.29,-17.11,-17.11,0,*62
1516241178.23,43956,8.56,71512.5,-16.29,-17.11,-17.03,0,*62
1516241179.5,43957,8.56,71514.3,-16.29,-17.03,-17.03,0,*60
1516241180.71,43958,8.56,71520.3,-16.29,-16.97,-16.97,0,*6F
1516241181.92,43959,8.56,71522.0,-16.29,-16.89,-16.89,0,*6E
1516241183.14,43960,8.56,71530.0,-16.29,-16.83,-16.89,0,*6E
1516241184.38,43961,8.56,71542.5,-16.31,-16.89,-16.93,0,*67
1516241185.59,43962,8.56,71538.5,-16.29,-16.89,-16.89,0,*66
1516241186.85,43963,8.56,71542.8,-16.31,-17.03,-16.93,0,*66
1516241188.07,43964,8.56,71546.8,-16.29,-16.83,-16.89,0,*6A
1516241189.28,43965,8.56,71548.8,-16.29,-16.89,-16.89,0,*61
1516241190.5,43966,8.56,71552.0,-16.29,-16.89,-16.83,0,*68
1516241191.72,43967,8.56,71560.0,-16.29,-16.89,-16.83,0,*69
1516241192.92,43968,8.56,71556.0,-16.29,-16.93,-16.93,0,*6C
1516241194.17,43969,8.56,71560.0,-16.29,-17.03,-16.97,0,*61
1516241195.43,43970,8.56,71556.5,-16.29,-17.03,-17.11,0,*66
1516241196.68,43971,8.56,71552.8,-16.29,-16.97,-17.11,0,*6B
1516241197.95,43972,8.56,71532.8,-16.29,-17.03,-17.03,0,*67
1516241199.21,43973,8.56,71528.3,-16.29,-17.11,-17.11,0,*66
1516241200.45,43974,8.56,71516.3,-16.29,-17.03,-16.97,0,*6D
1516241201.66,43975,8.56,71518.0,-16.29,-16.97,-16.89,0,*6F
1516241202.88,43976,8.56,71516.5,-16.29,-16.89,-16.83,0,*69
1516241204.1,43977,8.56,71500.3,-16.29,-16.97,-16.97,0,*62
1516241205.34,43978,8.56,71516.5,-16.29,-16.97,-17.03,0,*61
1516241206.58,43979,8.56,71524.0,-16.29,-16.97,-17.03,0,*60
1516241207.85,43980,8.56,71524.8,-16.31,-17.07,-16.83,0,*6E
1516241209.06,43981,8.56,71546.5,-16.29,-16.97,-16.89,0,*64
1516241210.28,43982,8.56,71542.3,-16.29,-16.83,-16.93,0,*69
1516241211.49,43983,8.56,71538.5,-16.29,-16.89,-16.89,0,*69
1516241212.7,43984,8.56,71546.8,-16.29,-16.89,-16.89,0,*6E
1516241213.97,43985,8.56,71546.8,-16.31,-17.03,-16.93,0,*6E
1516241215.18,43986,8.56,71546.5,-16.29,-16.97,-16.97,0,*6C
1516241216.42,43987,8.56,71550.5,-16.29,-17.11,-16.89,0,*6D
1516241217.68,43988,8.56,71544.0,-16.29,-17.11,-17.11,0,*62
1516241218.95,43989,8.56,71540.3,-16.29,-17.03,-17.11,0,*60
1516241220.22,43990,8.56,71548.5,-16.29,-17.17,-17.11,0,*6D
1516241221.52,43991,8.56,71544.0,-16.31,-17.07,-17.17,0,*62
1516241222.78,43992,8.56,71538.0,-16.29,-17.17,-17.17,0,*69
1516241224.05,43993,8.56,71538.8,-16.29,-17.21,-17.21,0,*68
1516241225.29,43994,8.56,71530.0,-16.29,-17.31,-17.21,0,*6E
1516241226.56,43995,8.56,71532.8,-16.29,-17.25,-17.21,0,*6A
1516241227.81,43996,8.56,71534.5,-16.31,-17.35,-17.35,0,*64
1516241229.06,43997,8.56,71530.0,-16.31,-17.35,-17.35,0,*65
1516241230.36,43998,8.56,71532.0,-16.31,-17.25,-17.25,0,*6A
1516241231.65,43999,8.56,71534.8,-16.31,-17.25,-17.25,0,*6B
1516241232.94,44000,8.56,71534.0,-16.31,-17.21,-17.21,0,*65
1516241234.24,44001,8.56,71528.5,-16.31,-17.17,-17.17,0,*64
1516241235.54,44002,8.56,71526.8,-16.31,-17.07,-17.03,0,*63
1516241236.8,44003,8.56,71528.5,-16.31,-17.03,-16.97,0,*6A
1516241238.1,44004,8.56,71532.3,-16.31,-17.03,-17.03,0,*61
1516241239.39,44005,8.56,71522.0,-16.31,-17.21,-17.21,0,*60
1516241240.69,44006,8.56,71518.3,-16.31,-17.17,-17.17,0,*63
1516241241.99,44007,8.56,71514.5,-16.31,-17.17,-17.17,0,*62
1516241243.29,44008,8.56,71522.5,-16.31,-17.07,-17.07,0,*6D
1516241244.59,44009,8.56,71526.5,-16.31,-17.03,-17.07,0,*68
1516241245.89,44010,8.56,71524.3,-16.31,-17.07,-17.07,0,*64
1516241247.19,44011,8.56,71524.5,-16.31,-17.03,-17.03,0,*65
1516241248.5,44012,8.56,71524.8,-16.31,-17.17,-17.07,0,*67
1516241249.79,44013,8.56,71530.8,-16.31,-17.07,-17.03,0,*63
1516241251.06,44014,8.56,71524.8,-16.33,-17.17,-17.17,0,*62
1516241252.35,44015,8.56,71522.0,-16.31,-17.07,-17.17,0,*60
1516241253.65,44016,8.56,71518.0,-16.31,-17.07,-17.17,0,*63
1516241254.95,44017,8.56,71514.3,-16.31,-17.21,-17.07,0,*67
1516241256.24,44018,8.56,71516.0,-16.31,-17.07,-17.17,0,*6D
1516241257.54,44019,8.56,71520.0,-16.31,-17.03,-17.07,0,*69
1516241258.84,44020,8.56,71526.0,-16.31,-17.03,-17.03,0,*67
1516241260.08,44021,8.56,71528.0,-16.31,-16.93,-16.93,0,*66
1516241261.31,44022,8.56,71532.0,-16.31,-16.89,-16.89,0,*65
1516241262.55,44023,8.56,71528.0,-16.31,-16.93,-16.89,0,*6F
1516241263.78,44024,8.56,71526.8,-16.31,-16.93,-16.93,0,*63
1516241265.08,44025,8.56,71532.8,-16.31,-17.03,-17.03,0,*62
1516241266.32,44026,8.56,71540.3,-16.31,-16.93,-16.89,0,*6A
1516241267.55,44027,8.56,71534.3,-16.31,-16.93,-16.93,0,*60
1516241268.79,44028,8.56,71524.8,-16.31,-16.93,-16.93,0,*6F
1516241270.02,44029,8.56,71530.3,-16.31,-16.93,-16.89,0,*65
1516241271.26,44030,8.56,71542.5,-16.31,-16.93,-16.93,0,*66
1516241272.49,44031,8.56,71536.8,-16.31,-16.93,-16.93,0,*67
1516241273.73,44032,8.56,71536.3,-16.31,-16.93,-16.93,0,*64
1516241274.94,44033,8.56,71542.8,-16.29,-16.97,-16.97,0,*6C
1516241276.18,44034,8.56,71536.3,-16.31,-16.93,-16.97,0,*66
1516241277.39,44035,8.56,71536.3,-16.29,-16.97,-16.89,0,*65
1516241278.63,44036,8.56,71538.8,-16.29,-16.97,-17.03,0,*65
1516241279.9,44037,8.56,71536.8,-16.29,-17.07,-17.03,0,*6C
1516241281.14,44038,8.56,71532.3,-16.29,-16.97,-17.03,0,*6B
1516241282.45,44039,8.56,71538.0,-16.31,-17.03,-17.07,0,*6B
1516241283.69,44040,8.56,71528.0,-16.29,-16.97,-17.03,0,*64
1516241284.99,44041,8.56,71530.8,-16.31,-17.07,-17.07,0,*60
1516241286.29,44042,8.56,71538.5,-16.31,-17.07,-17.07,0,*63
1516241287.6,44043,8.56,71534.5,-16.31,-17.07,-17.07,0,*62
1516241288.9,44044,8.56,71536.8,-16.31,-17.17,-17.07,0,*64
1516241290.2,44045,8.56,71536.5,-16.31,-17.03,-17.07,0,*60
1516241291.5,44046,8.56,71546.5,-16.31,-17.03,-17.03,0,*67
1516241292.79,44047,8.56,71538.5,-16.31,-17.07,-17.17,0,*67
1516241294.06,44048,8.56,71528.3,-16.29,-17.11,-17.11,0,*60
1516241295.3,44049,8.56,71536.8,-16.29,-17.03,-16.97,0,*6D
1516241296.6,44050,8.56,71536.0,-16.31,-17.03,-17.07,0,*64
1516241297.82,44051,8.56,71534.3,-16.29,-16.97,-16.97,0,*68
1516241299.11,44052,8.56,71532.5,-16.31,-17.03,-17.03,0,*62
1516241300.41,44053,8.56,71526.0,-16.31,-17.03,-17.03,0,*63